This demonstration page uses our WeatherBlox Daily Observations layout. Learn more.

Left ArrowRight Arrow

Hourly Observations for September 19, 2019

Temp ( °F °C ) Dew Point ( °F °C ) Humidity (%) Winds ( mph kmh ) Pressure ( in mb ) Visibility ( mi km ) Precip ( " mm )
12:53 am 00:53 Clear 74 23.3 66 18.9 76 76 SSE 8 13 29.89 1012 10 16 0.00 0.00
1:53 am 01:53 Clear 73 22.8 65 18.3 76 76 SSE 9 15 29.89 1012 10 16 0.00 0.00
2:53 am 02:53 Clear 73 22.8 66 18.9 79 79 S 8 13 29.88 1012 10 16 0.00 0.00
3:53 am 03:53 Clear 74 23.3 66 18.9 76 76 S 8 13 29.88 1012 10 16 0.00 0.00
4:53 am 04:53 Clear 73 22.8 66 18.9 79 79 S 8 13 29.88 1012 10 16 0.00 0.00
5:53 am 05:53 Clear 73 22.8 66 18.9 79 79 S 6 9 29.89 1012 10 16 0.00 0.00
6:53 am 06:53 Clear 70 21.1 65 18.3 84 84 S 5 7 29.91 1013 10 16 0.00 0.00
7:53 am 07:53 Sunny with Mist and Fog 68 20 65 18.3 90 90 ESE 3 6 29.95 1014 4 6 0.00 0.00
8:53 am 08:53 Sunny 72 22.2 67 19.4 84 84 E 8 13 29.96 1014 10 16 0.00 0.00
9:53 am 09:53 Sunny 75 23.9 67 19.4 76 76 ESE 10 17 29.95 1014 10 16 0.00 0.00
10:53 am 10:53 Sunny 79 26.1 68 20 69 69 ESE 14 22 29.95 1014 10 16 0.00 0.00
11:53 am 11:53 Sunny 80 26.7 68 20 67 67 SE 13 20 29.94 1014 10 16 0.00 0.00
12:53 pm 12:53 Sunny 83 28.3 69 20.6 63 63 SE 14 22 29.91 1013 10 16 0.00 0.00
1:53 pm 13:53 Sunny 87 30.6 68 20 53 53 SSE 18 30 29.89 1012 10 16 0.00 0.00
2:53 pm 14:53 Sunny 89 31.7 67 19.4 48 48 SSE 14 22 29.87 1011 10 16 0.00 0.00
3:53 pm 15:53 Mostly Sunny 89 31.7 68 20 50 50 SSE 16 26 29.85 1011 10 16 0.00 0.00
4:53 pm 16:53 Sunny 89 31.7 67 19.4 48 48 SSE 18 30 29.84 1011 10 16 0.00 0.00
5:53 pm 17:53 Sunny 89 31.7 64 17.8 43 43 SSE 17 28 29.83 1010 10 16 0.00 0.00
6:53 pm 18:53 Sunny 86 30 65 18.3 49 49 SSE 12 19 29.84 1011 10 16 0.00 0.00
7:53 pm 19:53 Clear 83 28.3 64 17.8 53 53 SSE 9 15 29.87 1011 10 16 0.00 0.00
8:53 pm 20:53 Clear 80 26.7 65 18.3 60 60 SSE 13 20 29.88 1012 10 16 0.00 0.00
9:53 pm 21:53 Clear 78 25.6 65 18.3 64 64 SSE 10 17 29.89 1012 10 16 0.00 0.00
10:53 pm 22:53 Clear 75 23.9 65 18.3 71 71 S 8 13 29.90 1013 10 16 0.00 0.00
11:53 pm 23:53 Clear 74 23.3 65 18.3 74 74 S 6 9 29.91 1013 10 16 0.00 0.00

Powered by AerisWeather